Regional Weather Roundup
Issued by NWS Columbia, SC

Home | Current Version | Previous Version | Text Only | Print | Product List | Glossary On
Versions: 1 2 3 4 5 6 7 8 9 10 11 12 13 14 15 16 17 18 19 20 21 22 23 24 25 26 27 28 29 30 31 32 33 34 35 36 37 38 39 40 41 42 43 44 45 46 47 48 49 50
000
ASUS42 KCAE 271810
RWRCAE
REGIONAL WEATHER ROUNDUP
NATIONAL WEATHER SERVICE COLUMBIA SC
100 PM EST MON FEB 27 2017

NOTE: "FAIR" INDICATES FEW OR NO CLOUDS BELOW 12,000 FEET WITH NO
SIGNIFICANT WEATHER AND/OR OBSTRUCTIONS TO VISIBILITY.

NOT ALL STATIONS ARE QUALITY CONTROLLED BY THE NATIONAL
WEATHER SERVICE. USE DATA WITH CAUTION...ESPECIALLY
DEWPOINT OBSERVATIONS.

SCZ001>056-GAZ040-063>065-077-271900-
...UPSTATE SOUTH CAROLINA...

CITY           SKY/WX    TMP DP  RH WIND       PRES   REMARKS
ANDERSON       CLOUDY    64  31  28 E7        30.36F
6HR MIN TEMP:  38; 6HR MAX TEMP:  64;

LIBERTY        CLOUDY    59  29  32 CALM      30.36F
6HR MIN TEMP:  32; 6HR MAX TEMP:  60;

SPARTANBURG    MOSUNNY   63  28  27 S5        30.37F
CLEMSON        PTSUNNY   61  29  29 VRB3      30.37F
6HR MIN TEMP:  43; 6HR MAX TEMP:  62;

GREENVILLE     CLOUDY    60  29  30 CALM      30.35F
6HR MIN TEMP:  43; 6HR MAX TEMP:  62;

GREENWOOD      MOSUNNY   65  38  36 MISG      30.36F
6HR MIN TEMP:  32; 6HR MAX TEMP:  66;

GREER          MOSUNNY   61  31  32 W7        30.34F
6HR MIN TEMP:  41; 6HR MAX TEMP:  62;

ROCK HILL      SUNNY     63  30  28 S8        30.39F
6HR MIN TEMP:  37; 6HR MAX TEMP:  63;

CHESTER        CLEAR     64  28  25 S6        30.39F
LAURENS        CLEAR     64  34  32 SE7       30.35F


...CENTRAL SOUTH CAROLINA...

CITY           SKY/WX    TMP DP  RH WIND       PRES   REMARKS
COLUMBIA APT   PTSUNNY   67  35  30 E6        30.36F
6HR MIN TEMP:  34; 6HR MAX TEMP:  67;

COLUMBIA OWENS SUNNY     66  34  30 S7        30.39R
6HR MIN TEMP:  38; 6HR MAX TEMP:  67;

MCENTIRE ANGB  PTSUNNY   67  37  33 SE12      30.37F
6HR MIN TEMP:  34; 6HR MAX TEMP:  67;

ORANGEBURG     CLOUDY    67  45  45 SE6       30.36F
6HR MIN TEMP:  37; 6HR MAX TEMP:  68;

SUMTER SHAW    CLOUDY    66  40  38 SE9       30.35F
6HR MIN TEMP:  34; 6HR MAX TEMP:  67;

AIKEN          FAIR      64  43  45 SE10G16   30.37F
BARNWELL       FAIR      68  48  49 E9        30.34F
MANNING        FAIR     N/A N/A N/A MISG      30.35F
CAMDEN         FAIR      64  34  32 CALM      30.39S
LANCASTER      PTCLDY    63  25  23 SE7       30.40R
WINNSBORO      CLEAR     64  32  29 SE3       30.38S


...EASTERN AND COASTAL SOUTH CAROLINA...

CITY           SKY/WX    TMP DP  RH WIND       PRES   REMARKS
MYRTLE BEACH   PTSUNNY   66  46  48 E10       30.42S
N MYRTLE BCH   CLOUDY    68  48  48 E9        30.38F
6HR MIN TEMP:  54; 6HR MAX TEMP:  68;

CONWAY         FAIR      68  46  45 S7        30.37F
MARION         FAIR      63  41  45 E10       30.39F
HARTSVILLE     FAIR      63  32  31 SE7       30.38S
FLORENCE       SUNNY     65  42  43 E8        30.38F
6HR MIN TEMP:  37; 6HR MAX TEMP:  66;

DARLINGTON     MOSUNNY   64  38  38 VRB5      30.38F
6HR MIN TEMP:  32; 6HR MAX TEMP:  65;

CHARLESTON APT PTSUNNY   73  50  44 S17       30.34F
6HR MIN TEMP:  47; 6HR MAX TEMP:  74;

MOUNT PLEASANT FAIR      72  54  53 SE9       30.35F
WALTERBORO     CLEAR     72  46  40 SE14G20   30.34F
BEAUFORT       MOSUNNY   71  55  56 SE13G23   30.32F
6HR MIN TEMP:  55; 6HR MAX TEMP:  73;



...EASTERN GEORGIA...

CITY           SKY/WX    TMP DP  RH WIND       PRES   REMARKS
AUGUSTA BUSH F MOSUNNY   70  47  43 SE7       30.32F
6HR MIN TEMP:  36; 6HR MAX TEMP:  71;

AUGUSTA DANIEL MOSUNNY   68  44  42 SE9G16    30.34F
6HR MIN TEMP:  45; 6HR MAX TEMP:  68;

THOMSON        CLOUDY    69  50  50 S7        30.36F
6HR MIN TEMP:  36; 6HR MAX TEMP:  69;

WASHINGTON     FAIR      64  45  48 SE6       30.34S
CLAXTON        FAIR      73  57  57 SE3       30.29F
SYLVANIA       PTCLDY   N/A N/A N/A SE10      30.32F
STATESBORO     MOSUNNY   72  56  57 SE3       30.31F
6HR MIN TEMP:  40; 6HR MAX TEMP:  72;

SAVANNAH       PTSUNNY   76  53  44 SE18G24   30.31F
6HR MIN TEMP:  47; 6HR MAX TEMP:  76;



...SOUTHERN NORTH CAROLINA...

CITY           SKY/WX    TMP DP  RH WIND       PRES   REMARKS
CHARLOTTE      PTSUNNY   62  28  27 S8        30.40S
6HR MIN TEMP:  34; 6HR MAX TEMP:  64;

MONROE         CLOUDY    62  32  32 VRB5      30.39F
6HR MIN TEMP:  36; 6HR MAX TEMP:  62;

WADESBORO      CLOUDY    62  27  27 SE6       30.39F
6HR MIN TEMP:  30; 6HR MAX TEMP:  62;

ROCKINGHAM     CLOUDY    62  24  23 SE9       30.38F
6HR MIN TEMP:  32; 6HR MAX TEMP:  62;

ASHEVILLE      CLOUDY    54  19  25 S7        30.35F
6HR MIN TEMP:  34; 6HR MAX TEMP:  54;


$$



USA.gov is the U.S. government's official web portal to all federal, state and local government web resources and services.